TimeCDT,TemperatureF,Dew PointF,Humidity,Sea Level PressureIn,VisibilityMPH,Wind Direction,Wind SpeedMPH,Gust SpeedMPH,PrecipitationIn,Events,Conditions,WindDirDegrees,DateUTC
12:52 AM,34.0,32.0,92,29.96,10.0,ESE,5.8,-,N/A,,Clear,110,2013-10-17 05:52:00
1:52 AM,33.1,30.9,92,29.95,10.0,East,4.6,-,N/A,,Clear,90,2013-10-17 06:52:00
2:52 AM,32.0,30.0,92,29.94,10.0,ESE,3.5,-,N/A,,Clear,110,2013-10-17 07:52:00
3:52 AM,32.0,30.0,92,29.92,10.0,ESE,4.6,-,N/A,,Clear,110,2013-10-17 08:52:00
4:52 AM,33.1,30.9,92,29.91,10.0,ESE,3.5,-,N/A,,Clear,110,2013-10-17 09:52:00
5:52 AM,30.0,28.9,96,29.89,10.0,ESE,3.5,-,N/A,,Clear,110,2013-10-17 10:52:00
6:52 AM,30.0,30.0,100,29.90,9.0,Calm,Calm,-,N/A,,Clear,0,2013-10-17 11:52:00
7:52 AM,30.0,28.9,96,29.91,5.0,Calm,Calm,-,N/A,,Clear,0,2013-10-17 12:52:00
8:52 AM,35.1,34.0,96,29.91,9.0,Calm,Calm,-,N/A,,Clear,0,2013-10-17 13:52:00
9:52 AM,42.1,36.0,79,29.92,10.0,WNW,5.8,-,N/A,,Clear,290,2013-10-17 14:52:00
10:52 AM,48.0,37.0,66,29.92,10.0,WNW,10.4,-,N/A,,Clear,300,2013-10-17 15:52:00
11:52 AM,52.0,39.9,63,29.91,10.0,NW,10.4,-,N/A,,Clear,310,2013-10-17 16:52:00
12:52 PM,55.0,41.0,59,29.91,10.0,NW,17.3,25.3,N/A,,Clear,310,2013-10-17 17:52:00
1:52 PM,57.0,42.1,57,29.90,10.0,WNW,18.4,25.3,N/A,,Clear,300,2013-10-17 18:52:00
2:40 PM,53.6,42.8,67,29.89,10.0,WNW,19.6,32.2,N/A,,Mostly Cloudy,300,2013-10-17 19:40:00
2:52 PM,52.0,42.1,69,29.92,10.0,NW,19.6,27.6,N/A,,Mostly Cloudy,310,2013-10-17 19:52:00
3:52 PM,51.1,42.1,71,29.93,10.0,NW,20.7,27.6,N/A,,Overcast,320,2013-10-17 20:52:00
4:52 PM,48.0,41.0,77,29.95,10.0,NW,23.0,29.9,N/A,,Overcast,320,2013-10-17 21:52:00
5:52 PM,46.9,39.0,74,29.97,10.0,NNW,23.0,31.1,N/A,,Overcast,330,2013-10-17 22:52:00
6:52 PM,45.0,37.9,76,30.01,10.0,NW,15.0,28.8,N/A,,Overcast,320,2013-10-17 23:52:00
7:50 PM,44.6,37.4,76,30.01,10.0,NW,13.8,23.0,N/A,,Overcast,320,2013-10-18 00:50:00
7:52 PM,45.0,37.0,74,30.04,10.0,NW,16.1,23.0,N/A,,Overcast,310,2013-10-18 00:52:00
8:01 PM,44.6,37.4,76,30.01,10.0,NW,16.1,25.3,N/A,,Overcast,320,2013-10-18 01:01:00
8:52 PM,44.1,37.9,79,30.04,10.0,NW,12.7,-,N/A,,Overcast,320,2013-10-18 01:52:00
9:30 PM,44.6,37.4,76,30.03,10.0,NW,15.0,-,N/A,,Overcast,320,2013-10-18 02:30:00
9:52 PM,44.1,39.0,82,30.06,10.0,NW,12.7,-,N/A,,Overcast,320,2013-10-18 02:52:00
10:52 PM,43.0,37.0,80,30.06,10.0,NW,12.7,-,N/A,,Overcast,310,2013-10-18 03:52:00
11:52 PM,43.0,37.9,82,30.05,10.0,WNW,9.2,-,N/A,,Overcast,300,2013-10-18 04:52:00